Regional Weather Roundup
Issued by NWS Goodland, KS

Home | Current Version | Previous Version | Text Only | Print | Product List | Glossary Off
Versions: 1 2 3 4 5 6 7 8 9 10 11 12 13 14 15 16 17 18 19 20 21 22 23 24 25 26 27 28 29 30 31 32 33 34 35 36 37 38 39 40 41 42 43 44 45 46 47 48 49 50

000
ASUS43 KGLD 231959
RWRGLD

GOODLAND FORECAST AREA HOURLY WEATHER ROUNDUP
NATIONAL WEATHER SERVICE GOODLAND KS
200 PM MDT WED JUL 23 2014

...OFFICIAL OBSERVATIONS...

CITY           SKY/WX    TMP DP  RH WIND       PRES   REMARKS
GOODLAND KS    SUNNY     87  60  40 SE16G22   30.28F
HILL CITY KS   CLOUDY    82  64  54 SE14      30.16F
IMPERIAL NEB   SUNNY     87  61  41 SW8       30.21F
MCCOOK NEB     CLOUDY    82  65  56 E6        30.19F
AKRON CO       SUNNY     80  64  58 SE26G36   30.31F
BURLINGTON CO  SUNNY     83  65  54 SE21G28   30.30F
LIMON CO       NOT AVBL
$$

...UNOFFICIAL OBSERVATIONS...

CITY           SKY/WX    TMP DP  RH WIND       PRES   REMARKS
COLBY KS       SUNNY     88  63  42 SE12      30.24F
GOVE KS          N/A     84  32  15 MISG        N/A
LENORA KS        N/A     78  32  18 MISG        N/A
NORTON KS      SUNNY     81  63  54 NE10      30.19R
KIT CARSON CO    N/A     85  67  54 N21G40      N/A
YUMA CO          N/A     82  65  56 SE14G28     N/A
$$



USA.gov is the U.S. government's official web portal to all federal, state and local government web resources and services.